Upper Bear Creek Observed Data For Previous 48 Hours

Caption
Day and Hour Reservoir Elevation (behind dam)* Tailwater Elevation (below dam)* Average Hourly Discharge*
8/18/2018 1 AM CDT 796.47 726.99 225
8/18/2018 2 AM CDT 796.47 727.00 225
8/18/2018 3 AM CDT 796.45 727.02 225
8/18/2018 4 AM CDT 796.45 727.00 225
8/18/2018 5 AM CDT 796.44 727.00 225
8/18/2018 6 AM CDT 796.43 727.04 225
8/18/2018 7 AM CDT 796.42 727.03 225
8/18/2018 8 AM CDT 796.42 727.02 225
8/18/2018 9 AM CDT 796.41 726.99 225
8/18/2018 10 AM CDT 796.40 727.00 225
8/18/2018 11 AM CDT 796.39 726.99 225
8/18/2018 12 PM CDT 796.38 727.01 225
8/18/2018 1 PM CDT 796.38 727.00 225
8/18/2018 2 PM CDT 796.37 726.75 225
8/18/2018 3 PM CDT 796.37 725.95 12
8/18/2018 4 PM CDT 796.37 725.82 12
8/18/2018 5 PM CDT 796.37 725.77 12
8/18/2018 6 PM CDT 796.37 725.75 12
8/18/2018 7 PM CDT 796.37 725.75 12
8/18/2018 8 PM CDT 796.37 725.74 12
8/18/2018 9 PM CDT 796.37 725.74 12
8/18/2018 10 PM CDT 796.37 725.74 12
8/18/2018 11 PM CDT 796.37 725.74 12
8/19/2018 12 AM CDT 796.36 726.96 12
8/19/2018 1 AM CDT 796.35 726.97 225
8/19/2018 2 AM CDT 796.34 726.98 225
8/19/2018 3 AM CDT 796.33 726.98 225
8/19/2018 4 AM CDT 796.32 726.99 225
8/19/2018 5 AM CDT 796.32 727.01 225
8/19/2018 6 AM CDT 796.30 727.00 225
8/19/2018 7 AM CDT 796.30 727.02 225
8/19/2018 8 AM CDT 796.29 727.01 225
8/19/2018 9 AM CDT 796.28 727.00 225
8/19/2018 10 AM CDT 796.27 726.99 225
8/19/2018 11 AM CDT 796.26 726.98 225
8/19/2018 12 PM CDT 796.25 726.97 225
8/19/2018 1 PM CDT 796.24 726.99 225
8/19/2018 2 PM CDT 796.23 726.97 225
8/19/2018 3 PM CDT 796.23 725.99 210
8/19/2018 4 PM CDT 796.23 725.84 12
8/19/2018 5 PM CDT 796.24 725.78 12
8/19/2018 6 PM CDT 796.23 725.76 12
8/19/2018 7 PM CDT 796.24 725.75 12
8/19/2018 8 PM CDT 796.23 725.75 12
8/19/2018 9 PM CDT 796.24 725.75 12
8/19/2018 10 PM CDT 796.24 725.75 12
8/19/2018 11 PM CDT 796.24 725.75 12
8/20/2018 12 AM CDT 796.24 725.75 12
8/20/2018 1 AM CDT 796.24 725.75 12
8/20/2018 2 AM CDT 796.24 725.75 12
8/20/2018 3 AM CDT 796.24 725.75 12
8/20/2018 4 AM CDT 796.24 725.75 12
8/20/2018 5 AM CDT 796.24 725.75 12
8/20/2018 6 AM CDT 796.24 725.75 12
8/20/2018 7 AM CDT 796.24 725.75 12
8/20/2018 8 AM CDT 796.24 725.75 12
8/20/2018 9 AM CDT 796.24 725.75 12
8/20/2018 10 AM CDT 796.24 725.75 12

Elevations are in feet above sea level. Discharges are in cubic feet per second and are reported at the end of the hour.